OneWeb SL0307

operational
NORAD ID: 49189 Int'l Des: 2021-083 Owner: ONEWEBN Country: UK Constellation: oneweb
LEOCIRCULARPOLARONEWEB_TYPE

Über OneWeb SL0307

Beschreibung wird geladen...

Live-Position

3D-Globus wird geladen...

Nächste Überflüge

Höhenverlauf

Altitude vs Time

uPlot chart will show altitude changes over time

Zweizeiliger Elementsatz

1 49189U 21083D 25353.76140216 .00000221 00000-0 57085-3 0 9993
2 49189 87.8965 355.9108 0001757 89.8232 270.3099 13.13470631207377
Epoch: 19. Dez. 2025 • Age: 7 hours

Aktueller Status

Höhe 1233.7 km
Geschwindigkeit 7.24 km/s
Subsatellitenpunkt -59.00°S, 115.83°W
Startdatum 14. Sept. 2021
Alter 4.2 years
Typ internet

Technische Details

Klassifizierung Payload
Masse 148.00 kg
Trockenmasse 140.00 kg
Gesamtmasse 148.00 kg
Länge 1.30 m
Durchmesser 1.00 m
Spannweite 5.00 m
Form Trapezoid+2 pan
Hersteller ONEWUS
Bus-Typ ARROW
Phasenstatus In Orbit
Besitzer/Staat ONEWEBN/UK

Große Konstellationen

Loading constellations...